User: anonymous   Login
Location: Unspecified
(0.0000°N, 0.0000°E)
Time: 16:41:01
(UTC+00:00)
Language:

OTV 4 - Orbit

View from above orbital plane
View from above orbital plane
View from above satellite
View from above satellite

Ground track
Ground track

The orbit data is extracted from the following two-line orbital elements,

1 40651U 15025A   17088.16315227 0.00000000  00000-0  00000-0 0    03
2 40651  37.9996 191.7250 0011000  69.7433 290.2558 15.80519898    05
Epoch (UTC): 29 March 2017 03:54:56
Eccentricity: 0.0011000
inclination: 37.9996°
perigee height: 321 km
apogee height: 336 km
right ascension of ascending node: 191.7250°
argument of perigee: 69.7433°
revolutions per day: 15.80519898
mean anomaly at epoch: 290.2558°
orbit number at epoch: 0

The dashed part of the orbit path shows where the satellite is in the earth's shadow,  

DLR